Retour au catalogue

NOAA 16 DEB

ActifSSO
NORAD 41653·DEBRIS·🇺🇸 United States

Lancé Sep 21, 2000 depuis Vandenberg Space Force Base

Loading…

Prochains Passages (prochaines 24 heures)

TLE

FraisSource: Space-Track

Époque: Sep 13, 2026, 20:17 UTC

1 41653U 00055NS  26256.84571863  .00004630  00000-0  13815-2 0  9995
2 41653  98.8763  36.5676 0003135 328.3467  31.7533 14.43513314540022

Suivez NOAA 16 DEB en temps réel avec AllMySat

Download on the App Store